Denver, CO

5:33 PM MDT on July 24, 2017 (GMT -0600)
Front Range

Weather History for KFTG - November, 2012

Change the Weather History Date:

Thursday, November 8, 2012

  Actual Average (KBKF) Record (KBKF)
Temperature  
Mean Temperature 46 °F -  
Max Temperature 57 °F 51 °F 78 °F (2006)
Min Temperature 35 °F 28 °F 19 °F (1996)
Degree Days  
Heating Degree Days 19    
Moisture  
Dew Point 27 °F    
Average Humidity 51    
Maximum Humidity 87    
Minimum Humidity 30    
Precipitation  
Precipitation 0.00 in - - ()
Sea Level Pressure  
Sea Level Pressure 29.92 in    
Wind  
Wind Speed 9 mph (SSW)    
Max Wind Speed 15 mph    
Max Gust Speed -    
Visibility 10 miles    
Events      
Averages and records for this station are not official NWS values.
T = Trace of Precipitation, MM = Missing Value Source: NWS Daily Summary

Daily Weather History Graph

Daily Weather History Graph

Search for Another Location

Airport or City:

Trip Planner

Search our weather history database for the weather conditions in past years. The results will help you decide how hot, cold, wet, or windy it might be!

Date:

Astronomy

Nov. 08, 2012 Rise Set
Actual Time 6:35 AM MST 4:47 PM MST
Civil Twilight 6:06 AM MST 5:16 PM MST
Nautical Twilight 5:34 AM MST 5:48 PM MST
Astronomical Twilight 5:02 AM MST 6:20 PM MST
Moon 12:34 AM MST (11/8) 1:29 PM MST (11/8)
Length of Visible Light 11h 09m
Length of Day
10h 12m
Waning Crescent, 32% of the Moon is Illuminated
Nov 8
Waning Crescent
Nov 13
New
Nov 20
First Quarter
Nov 28
Full
Dec 6
Last Quarter

Hourly Weather History & Observations

Time (MST) Temp. Windchill Dew Point Humidity Pressure Visibility Wind Dir Wind Speed Gust Speed Precip Events Conditions
12:19 AM 48.2 °F - 30.2 °F 50% 29.97 in 10.0 mi SW 8.1 mph - N/A   Clear
12:39 AM 46.4 °F 43.5 °F 28.4 °F 50% 29.96 in 10.0 mi SW 5.8 mph - N/A   Clear
12:58 AM 46.4 °F 41.5 °F 26.6 °F 46% 29.96 in 10.0 mi SW 10.4 mph - N/A   Clear
1:19 AM 50.0 °F - 24.8 °F 37% 29.96 in 10.0 mi WSW 8.1 mph - N/A   Clear
1:39 AM 50.0 °F - 23.0 °F 35% 29.96 in 10.0 mi SW 9.2 mph - N/A   Clear
1:59 AM 51.8 °F - 21.2 °F 30% 29.96 in 10.0 mi SSW 10.4 mph - N/A   Clear
2:18 AM 51.8 °F - 21.2 °F 30% 29.96 in 10.0 mi SW 8.1 mph - N/A   Clear
2:39 AM 44.6 °F 40.7 °F 24.8 °F 46% 29.95 in 10.0 mi SSW 6.9 mph - N/A   Clear
2:59 AM 50.0 °F - 21.2 °F 32% 29.95 in 10.0 mi SSW 9.2 mph - N/A   Clear
3:18 AM 48.2 °F - 23.0 °F 37% 29.96 in 10.0 mi SSW 9.2 mph - N/A   Clear
3:39 AM 37.4 °F 30.3 °F 26.6 °F 65% 29.96 in 10.0 mi SSW 10.4 mph - N/A   Clear
3:58 AM 42.8 °F 37.5 °F 24.8 °F 49% 29.96 in 10.0 mi SSW 9.2 mph - N/A   Clear
4:19 AM 50.0 °F - 21.2 °F 32% 29.96 in 10.0 mi SSW 13.8 mph - N/A   Clear
4:39 AM 50.0 °F - 21.2 °F 32% 29.97 in 10.0 mi SSW 12.7 mph - N/A   Clear
4:58 AM 46.4 °F 41.9 °F 21.2 °F 37% 29.97 in 10.0 mi SSW 9.2 mph - N/A   Clear
5:19 AM 46.4 °F 41.1 °F 21.2 °F 37% 29.96 in 10.0 mi SW 11.5 mph - N/A   Clear
5:59 AM 50.0 °F - 19.4 °F 30% 29.96 in 10.0 mi SW 10.4 mph - N/A   Clear
6:19 AM 50.0 °F - 19.4 °F 30% 29.96 in 10.0 mi SW 10.4 mph - N/A   Clear
6:39 AM 41.0 °F 35.2 °F 23.0 °F 49% 29.97 in 10.0 mi South 9.2 mph - N/A   Clear
6:50 AM 50.0 °F - 19.4 °F 30% 29.97 in 50.0 mi SSW 11.5 mph - N/A   Mostly Cloudy
6:54 AM 50.0 °F - 19.4 °F 30% 29.97 in 10.0 mi SSW 11.5 mph - N/A   Clear
8:49 AM 55.4 °F - 28.4 °F 36% 30.02 in 50.0 mi North 15.0 mph - N/A   Mostly Cloudy
9:58 AM 55.4 °F - 28.4 °F 36% 30.01 in 50.0 mi NNE 13.8 mph - N/A   Scattered Clouds
10:47 AM 57.2 °F - 28.4 °F 33% 30.00 in 50.0 mi NE 11.5 mph - N/A   Partly Cloudy
2:50 PM 57.2 °F - 32.0 °F 38% 29.90 in 50.0 mi ENE 6.9 mph - N/A   Mostly Cloudy
3:47 PM 55.4 °F - 33.8 °F 44% 29.90 in 50.0 mi ENE 6.9 mph - N/A   Mostly Cloudy
4:47 PM 51.8 °F - 35.6 °F 54% 29.89 in 20.0 mi NE 5.8 mph - N/A   Mostly Cloudy
5:50 PM 46.4 °F 43.5 °F 33.8 °F 62% 29.88 in 10.0 mi NE 5.8 mph - N/A   Scattered Clouds
6:55 PM 41.0 °F 39.0 °F 33.8 °F 76% 29.89 in 10.0 mi North 3.5 mph - N/A   Clear
7:47 PM 39.2 °F 35.0 °F 32.0 °F 75% 29.87 in 10.0 mi West 5.8 mph - N/A   Clear
8:50 PM 37.4 °F 32.8 °F 32.0 °F 81% 29.86 in 10.0 mi SSE 5.8 mph - N/A   Clear
9:19 PM 35.6 °F 29.2 °F 32.0 °F 87% 29.86 in 10.0 mi South 8.1 mph - N/A   Clear
9:39 PM 37.4 °F 32.1 °F 32.0 °F 81% 29.86 in 10.0 mi South 6.9 mph - N/A   Clear
9:59 PM 41.0 °F 36.4 °F 33.8 °F 76% 29.85 in 10.0 mi South 6.9 mph - N/A   Clear
10:19 PM 37.4 °F 32.1 °F 32.0 °F 81% 29.84 in 10.0 mi South 6.9 mph - N/A   Clear
10:39 PM 37.4 °F 30.3 °F 32.0 °F 81% 29.84 in 10.0 mi SSW 10.4 mph - N/A   Clear
10:59 PM 42.8 °F 37.5 °F 32.0 °F 66% 29.84 in 10.0 mi SSW 9.2 mph - N/A   Clear
11:19 PM 39.2 °F 33.6 °F 32.0 °F 75% 29.83 in 10.0 mi SSW 8.1 mph - N/A   Clear
11:39 PM 41.0 °F 38.0 °F 32.0 °F 70% 29.82 in 10.0 mi SSW 4.6 mph - N/A   Clear
11:59 PM 39.2 °F 35.9 °F 32.0 °F 75% 29.81 in 10.0 mi SW 4.6 mph - N/A   Clear